FW7460 Weather Reports


time (UTC)temp
F
wind
direction
speed
knots
gust
knots
rain 1hr
in
rain 24hr
in
rain mn
in
humidity
%
barometer
mb
20260906223405 89 61 5.2 7.8 0.00 0.00 0.00 36 1010.2
20260906222903 90 78 6.1 8.7 0.00 0.00 0.00 36 1010.0
20260906222402 89 31 7.8 12.2 0.00 0.00 0.00 35 1009.8
20260906221859 91 41 5.2 13.0 0.00 0.00 0.00 34 1010.2
20260906221354 90 28 6.1 8.7 0.00 0.00 0.00 34 1010.4
20260906220849 89 343 4.3 6.1 0.00 0.00 0.00 35 1010.4
20260906220345 89 53 3.5 7.8 0.00 0.00 0.00 35 1010.9
20260906215843 88 81 3.5 7.0 0.00 0.00 0.00 35 1010.9
20260906215338 88 86 5.2 7.8 0.00 0.00 0.00 34 1010.9
20260906214837 88 72 1.7 7.8 0.00 0.00 0.00 35 1010.9
20260906214336 89 90 3.5 8.7 0.00 0.00 0.00 34 1010.7
20260906213836 89 86 5.2 9.6 0.00 0.00 0.00 35 1011.1
20260906213336 91 91 4.3 7.8 0.00 0.00 0.00 34 1011.1
20260906212833 90 76 6.1 13.0 0.00 0.00 0.00 32 1010.9
20260906212329 91 96 4.3 7.0 0.00 0.00 0.00 31 1011.1
20260906211828 91 77 4.3 6.1 0.00 0.00 0.00 31 1011.1
20260906211323 91 77 7.8 9.6 0.00 0.00 0.00 31 1011.1
20260906210819 91 339 3.5 6.1 0.00 0.00 0.00 34 1011.1
20260906210319 89 357 8.7 13.0 0.00 0.00 0.00 34 1011.3
20260906205814 90 353 4.3 8.7 0.00 0.00 0.00 34 1011.4
20260906205310 89 25 4.3 8.7 0.00 0.00 0.00 34 1011.3
20260906204806 89 78 2.6 12.2 0.00 0.00 0.00 35 1011.4
20260906204305 90 340 4.3 12.2 0.00 0.00 0.00 34 1011.5
20260906203804 89 43 6.1 11.3 0.00 0.00 0.00 35 1011.5
20260906203300 87 15 4.3 12.2 0.00 0.00 0.00 36 1012.0
20260906202756 88 358 5.2 7.8 0.00 0.00 0.00 36 1012.0
20260906202256 86 13 2.6 12.2 0.00 0.00 0.00 36 1011.8
20260906201750 86 289 7.8 12.2 0.00 0.00 0.00 37 1011.8
20260906201250 86 338 4.3 11.3 0.00 0.00 0.00 38 1011.8
20260906200746 86 357 7.0 12.2 0.00 0.00 0.00 38 1012.0
20260906200242 86 342 11.3 13.9 0.00 0.00 0.00 37 1012.0
20260906195737 85 288 9.6 13.0 0.00 0.00 0.00 39 1012.2
20260906195233 85 309 12.2 14.8 0.00 0.00 0.00 39 1012.4
20260906194729 86 8 12.2 14.8 0.00 0.00 0.00 38 1012.5
20260906194225 86 352 11.3 13.9 0.00 0.00 0.00 38 1012.2
20260906193720 86 307 5.2 11.3 0.00 0.00 0.00 41 1012.3
20260906193214 86 32 7.8 11.3 0.00 0.00 0.00 38 1012.5
20260906192710 84 281 7.0 7.8 0.00 0.00 0.00 40 1012.5
20260906192209 84 307 8.7 13.9 0.00 0.00 0.00 41 1012.8
20260906191704 84 318 8.7 12.2 0.00 0.00 0.00 41 1012.7
20260906191204 84 313 7.0 13.0 0.00 0.00 0.00 41 1013.0
20260906190658 84 354 8.7 9.6 0.00 0.00 0.00 41 1013.1
20260906190153 83 309 7.0 7.8 0.00 0.00 0.00 43 1013.1
20260906185652 82 325 5.2 11.3 0.00 0.00 0.00 44 1013.3
20260906185151 82 272 4.3 9.6 0.00 0.00 0.00 45 1013.6
20260906184646 82 318 9.6 12.2 0.00 0.00 0.00 44 1013.3
20260906184142 82 335 7.8 9.6 0.00 0.00 0.00 42 1013.7
20260906183637 81 316 4.3 7.8 0.00 0.00 0.00 44 1013.6
20260906183133 81 336 3.5 11.3 0.00 0.00 0.00 43 1014.0
20260906182633 81 351 5.2 8.7 0.00 0.00 0.00 46 1013.8
20260906182129 81 39 6.1 9.6 0.00 0.00 0.00 43 1014.0
20260906181630 82 346 3.5 7.8 0.00 0.00 0.00 43 1014.2
20260906181126 82 288 4.3 6.1 0.00 0.00 0.00 42 1014.3
20260906180621 81 303 5.2 7.8 0.00 0.00 0.00 42 1014.3
20260906180115 80 311 5.2 7.8 0.00 0.00 0.00 43 1014.4
20260906175613 80 339 7.0 8.7 0.00 0.00 0.00 42 1014.7
20260906175108 80 3 4.3 6.1 0.00 0.00 0.00 42 1014.5
20260906174606 81 324 4.3 5.2 0.00 0.00 0.00 42 1014.7
20260906174101 79 342 2.6 4.3 0.00 0.00 0.00 44 1014.9
20260906173556 79 314 3.5 4.3 0.00 0.00 0.00 46 1014.9
20260906173053 78 327 2.6 6.1 0.00 0.00 0.00 45 1015.1
20260906172552 78 317 5.2 6.1 0.00 0.00 0.00 46 1015.3
20260906172048 78 300 3.5 6.1 0.00 0.00 0.00 47 1015.3
20260906171547 78 270 1.7 2.6 0.00 0.00 0.00 46 1015.1
20260906171043 78 272 2.6 2.6 0.00 0.00 0.00 46 1015.5
20260906170539 78 316 0.9 0.9 0.00 0.00 0.00 45 1015.6
20260906170038 77 328 1.7 2.6 0.00 0.00 0.00 46 1015.7
20260906165535 78 334 0.9 1.7 0.00 0.00 0.00 45 1016.0
20260906165030 76 272 2.6 2.6 0.00 0.00 0.00 48 1015.7
20260906164529 76 281 1.7 2.6 0.00 0.00 0.00 48 1015.7
20260906164025 75 334 0.9 2.6 0.00 0.00 0.00 47 1016.0
20260906163520 76 306 3.5 5.2 0.00 0.00 0.00 49 1015.8
20260906163015 77 348 1.7 2.6 0.00 0.00 0.00 47 1015.8
20260906162512 76 78 1.7 4.3 0.00 0.00 0.00 47 1016.0
20260906162007 77 51 0.9 1.7 0.00 0.00 0.00 46 1016.0
20260906161502 76 35 2.6 2.6 0.00 0.00 0.00 48 1016.0
20260906161001 76 140 0.9 2.6 0.00 0.00 0.00 48 1015.6
20260906160454 75 16 0.0 0.9 0.00 0.00 0.00 50 1016.0
20260906155952 76 51 1.7 2.6 0.00 0.00 0.00 49 1016.0
20260906155451 74 356 0.9 2.6 0.00 0.00 0.00 51 1016.1
20260906154948 73 304 3.5 4.3 0.00 0.00 0.00 54 1015.7
20260906154443 75 343 2.6 2.6 0.00 0.00 0.00 51 1015.8
20260906153941 74 325 0.9 4.3 0.00 0.00 0.00 52 1016.0
20260906153440 73 347 0.0 2.6 0.00 0.00 0.00 55 1015.8
20260906152935 72 340 0.9 4.3 0.00 0.00 0.00 55 1015.8
20260906152430 72 6 0.9 1.7 0.00 0.00 0.00 53 1015.7
20260906151929 72 15 3.5 4.3 0.00 0.00 0.00 51 1016.1
20260906151425 71 340 0.9 0.9 0.00 0.00 0.00 56 1016.0
20260906150920 72 340 0.0 0.9 0.00 0.00 0.00 54 1016.1
20260906150415 71 331 0.0 0.9 0.00 0.00 0.00 53 1016.1
20260906145915 72 14 0.0 0.0 0.00 0.00 0.00 52 1016.2
20260906145413 71 337 0.0 0.0 0.00 0.00 0.00 51 1016.2
20260906144908 70 356 0.0 1.7 0.00 0.00 0.00 52 1016.2
20260906144403 69 14 0.9 1.7 0.00 0.00 0.00 53 1016.1
20260906143858 69 345 0.0 0.9 0.00 0.00 0.00 54 1016.0
20260906143354 68 326 0.0 0.9 0.00 0.00 0.00 55 1016.1
20260906142850 68 333 0.0 0.9 0.00 0.00 0.00 55 1016.1
20260906142344 67 323 0.9 1.7 0.00 0.00 0.00 55 1016.2
20260906141844 67 334 0.9 1.7 0.00 0.00 0.00 57 1016.0
20260906141339 67 333 0.0 0.0 0.00 0.00 0.00 59 1016.1
20260906140838 67 335 0.0 0.0 0.00 0.00 0.00 58 1016.0
20260906140333 67 342 0.0 0.9 0.00 0.00 0.00 58 1016.1
20260906135830 69 336 0.0 0.9 0.00 0.00 0.00 55 1016.1
20260906135320 67 328 0.0 0.0 0.00 0.00 0.00 57 1016.2
20260906134815 66 327 0.0 0.0 0.00 0.00 0.00 59 1016.2
20260906134310 67 335 0.0 0.0 0.00 0.00 0.00 57 1016.1
20260906133806 64 327 0.0 0.0 0.00 0.00 0.00 62 1015.8
20260906133301 64 319 0.0 0.0 0.00 0.00 0.00 62 1016.3
20260906132756 64 6 0.0 0.0 0.00 0.00 0.00 61 1015.8
20260906132252 64 6 0.0 0.0 0.00 0.00 0.00 63 1016.1
20260906131748 63 6 0.0 0.0 0.00 0.00 0.00 64 1015.7
20260906131248 64 6 0.0 0.0 0.00 0.00 0.00 61 1016.0
20260906130743 63 6 0.0 0.0 0.00 0.00 0.00 62 1015.7
20260906130238 62 6 0.0 0.0 0.00 0.00 0.00 64 1015.4
20260906125736 62 6 0.0 0.0 0.00 0.00 0.00 65 1015.6
20260906125235 61 6 0.0 0.0 0.00 0.00 0.00 66 1015.5
20260906124729 61 6 0.0 0.9 0.00 0.00 0.00 67 1015.4
20260906124226 61 322 0.0 1.7 0.00 0.00 0.00 65 1015.5
20260906123724 61 321 0.0 0.0 0.00 0.00 0.00 67 1015.5
20260906123220 60 339 0.0 0.0 0.00 0.00 0.00 67 1015.5
20260906122719 61 339 0.0 0.0 0.00 0.00 0.00 66 1015.5
20260906122214 61 339 0.0 0.0 0.00 0.00 0.00 65 1015.6
20260906121711 62 334 0.0 0.0 0.00 0.00 0.00 65 1015.6
20260906121207 63 318 0.0 0.9 0.00 0.00 0.00 62 1015.4
20260906120702 63 304 2.6 2.6 0.00 0.00 0.00 61 1015.6
20260906120159 63 322 1.7 1.7 0.00 0.00 0.00 62 1015.7
20260906115654 62 327 0.9 1.7 0.00 0.00 0.00 63 1015.6
20260906115149 63 326 0.0 0.9 0.00 0.00 0.00 63 1015.7
20260906114648 64 327 0.0 0.9 0.00 0.00 0.00 62 1015.8
20260906114143 64 313 0.9 1.7 0.00 0.00 0.00 60 1015.7
20260906113638 63 288 0.9 0.9 0.00 0.00 0.00 61 1015.5
20260906113138 63 291 0.9 0.9 0.00 0.00 0.00 62 1015.7
20260906112637 62 328 0.0 0.0 0.00 0.00 0.00 68 1015.6
20260906112135 62 328 0.0 0.0 0.00 0.00 0.00 67 1015.8
20260906111633 63 313 0.0 0.0 0.00 0.00 0.00 66 1015.6
20260906111128 62 130 0.9 1.7 0.00 0.00 0.00 64 1015.4
20260906110623 62 114 2.6 2.6 0.00 0.00 0.00 68 1015.5
20260906110118 64 208 1.7 2.6 0.00 0.00 0.00 62 1015.0
20260906105612 64 191 0.0 0.9 0.00 0.00 0.00 59 1014.9
20260906105109 65 354 0.0 0.9 0.00 0.00 0.00 59 1015.1
20260906104608 65 253 1.7 2.6 0.00 0.00 0.00 59 1015.3
20260906104102 64 275 2.6 2.6 0.00 0.00 0.00 62 1015.0
20260906103600 64 314 0.0 0.0 0.00 0.00 0.00 62 1015.0
20260906103056 64 349 0.0 0.0 0.00 0.00 0.00 61 1015.0
20260906102555 63 327 0.0 0.0 0.00 0.00 0.00 64 1014.9
20260906102050 62 338 0.0 0.0 0.00 0.00 0.00 66 1014.9
20260906101545 62 324 0.0 0.0 0.00 0.00 0.00 67 1015.0
20260906101039 63 323 0.0 0.0 0.00 0.00 0.00 66 1015.3
20260906100536 63 65 0.0 0.0 0.00 0.00 0.00 65 1014.9
20260906100036 63 141 0.0 0.0 0.00 0.00 0.00 65 1015.0
20260906095530 64 144 0.0 0.0 0.00 0.00 0.00 64 1015.0
20260906095026 64 334 0.0 0.0 0.00 0.00 0.00 61 1014.9
20260906094524 65 332 0.0 0.0 0.00 0.00 0.00 60 1014.9
20260906094021 65 333 0.0 0.0 0.00 0.00 0.00 59 1014.8
20260906093516 65 342 0.0 0.0 0.00 0.00 0.00 60 1014.9
20260906093016 66 332 0.0 0.0 0.00 0.00 0.00 58 1014.9
20260906092511 65 274 0.9 1.7 0.00 0.00 0.00 59 1015.0
20260906092006 65 326 0.0 0.0 0.00 0.00 0.00 61 1014.9
20260906091502 64 275 0.0 0.0 0.00 0.00 0.00 64 1014.9
20260906090959 64 283 0.0 0.0 0.00 0.00 0.00 62 1015.1
20260906090453 65 22 0.9 1.7 0.00 0.00 0.00 63 1014.9
20260906085953 65 14 0.9 1.7 0.00 0.00 0.00 63 1014.8
20260906085452 65 20 0.0 0.9 0.00 0.00 0.00 62 1014.9
20260906084951 65 8 1.7 2.6 0.00 0.00 0.00 61 1014.8
20260906084446 66 18 0.9 1.7 0.00 0.00 0.00 60 1015.0
20260906083945 66 315 0.0 0.0 0.00 0.00 0.00 57 1014.8
20260906083441 65 298 0.0 0.0 0.00 0.00 0.00 60 1014.5
20260906082940 66 335 0.0 0.0 0.00 0.00 0.00 59 1014.4
20260906082436 66 344 0.0 0.0 0.00 0.00 0.00 60 1014.5
20260906081931 66 336 0.0 0.0 0.00 0.00 0.00 57 1014.7
20260906081426 66 8 0.0 0.0 0.00 0.00 0.00 60 1014.7
20260906080923 67 326 0.0 0.0 0.00 0.00 0.00 59 1014.7
20260906080420 68 348 0.0 0.0 0.00 0.00 0.00 55 1014.5
20260906075919 67 357 0.0 0.0 0.00 0.00 0.00 56 1014.5
20260906075414 68 358 0.0 0.0 0.00 0.00 0.00 57 1014.7
20260906074909 68 340 0.0 0.0 0.00 0.00 0.00 55 1014.7
20260906074409 67 337 0.0 0.0 0.00 0.00 0.00 56 1014.5
20260906073908 70 340 0.0 0.0 0.00 0.00 0.00 52 1014.4
20260906073403 70 113 1.7 2.6 0.00 0.00 0.00 49 1014.3
20260906072859 67 358 0.0 0.0 0.00 0.00 0.00 54 1014.3
20260906072354 67 358 0.0 0.0 0.00 0.00 0.00 58 1014.5
20260906071850 67 6 0.0 0.9 0.00 0.00 0.00 60 1014.4
20260906071345 67 348 0.0 0.9 0.00 0.00 0.00 59 1014.5
20260906070841 68 324 0.0 0.9 0.00 0.00 0.00 59 1014.7
20260906070337 67 207 2.6 2.6 0.00 0.00 0.00 64 1014.7
20260906065832 67 252 0.9 1.7 0.00 0.00 0.00 66 1014.5
20260906065327 66 51 0.9 1.7 0.00 0.00 0.00 69 1014.7
20260906064822 65 43 0.0 0.0 0.00 0.00 0.00 73 1014.8
20260906064319 65 356 0.0 0.9 0.00 0.00 0.00 72 1014.8
20260906063813 66 157 1.7 4.3 0.00 0.00 0.00 74 1014.8
20260906063308 66 309 0.0 0.0 0.00 0.00 0.00 73 1014.8
20260906062803 66 319 0.0 0.0 0.00 0.00 0.00 71 1014.9
20260906062305 66 335 0.0 0.0 0.00 0.00 0.00 71 1015.0
20260906061758 67 305 0.0 0.0 0.00 0.00 0.00 70 1015.0
20260906061255 67 357 0.0 0.0 0.00 0.00 0.00 68 1014.9
20260906060749 68 327 0.0 0.9 0.00 0.00 0.00 67 1015.1
20260906060247 70 185 1.7 1.7 0.00 0.00 0.00 64 1015.0
20260906055742 68 150 2.6 2.6 0.00 0.02 0.02 69 1015.1
20260906055237 68 182 2.6 2.6 0.00 0.02 0.02 70 1015.3
20260906054733 68 51 0.9 4.3 0.00 0.02 0.02 69 1015.0
20260906054228 69 131 2.6 2.6 0.00 0.02 0.02 67 1014.8
20260906053725 71 298 1.7 1.7 0.00 0.02 0.02 62 1014.9
20260906053220 70 56 4.3 5.2 0.00 0.02 0.02 60 1015.1
20260906052715 69 9 0.9 0.9 0.00 0.02 0.02 67 1014.9
20260906052211 70 309 0.0 0.9 0.00 0.02 0.02 56 1014.9
20260906051708 70 332 0.9 2.6 0.00 0.02 0.02 57 1015.0
20260906051207 71 277 1.7 2.6 0.00 0.02 0.02 52 1015.0
20260906050703 72 308 1.7 4.3 0.12 0.02 0.02 55 1015.3
20260906050158 71 266 4.3 7.0 0.12 0.02 0.02 54 1015.4
20260906045656 73 265 5.2 8.7 0.00 0.00 0.00 54 1015.1
20260906045151 75 310 5.2 6.1 0.00 0.00 0.00 44 1014.9
20260906044647 76 306 5.2 6.1 0.00 0.00 0.00 38 1015.1
20260906044142 78 329 0.9 2.6 0.00 0.00 0.00 38 1015.3
20260906043639 78 264 4.3 5.2 0.00 0.00 0.00 36 1015.0
20260906043134 77 263 4.3 5.2 0.00 0.00 0.00 35 1015.3
20260906042633 77 268 6.1 7.8 0.00 0.00 0.00 37 1015.3
20260906042127 74 276 3.5 4.3 0.00 0.00 0.00 41 1015.0
20260906041623 74 314 2.6 2.6 0.00 0.00 0.00 41 1015.1
20260906041118 76 314 0.0 0.9 0.00 0.00 0.00 38 1014.9
20260906040614 76 324 0.0 0.0 0.00 0.00 0.00 38 1014.8
20260906040109 77 175 1.7 4.3 0.00 0.00 0.00 37 1014.7
20260906035604 76 126 3.5 4.3 0.00 0.00 0.00 37 1014.4
20260906035100 76 189 3.5 4.3 0.00 0.00 0.00 37 1014.7
20260906034559 76 156 6.1 11.3 0.00 0.00 0.00 37 1014.7
20260906034054 74 143 6.1 9.6 0.00 0.00 0.00 40 1014.5
20260906033550 73 143 2.6 4.3 0.00 0.00 0.00 45 1014.4
20260906033045 74 77 1.7 2.6 0.00 0.00 0.00 41 1014.0
20260906032542 74 107 2.6 2.6 0.00 0.00 0.00 41 1013.8
20260906032036 73 122 1.7 1.7 0.00 0.00 0.00 42 1013.8
20260906031532 73 333 0.0 0.9 0.00 0.00 0.00 42 1014.1
20260906031027 74 346 0.0 0.9 0.00 0.00 0.00 41 1013.6
20260906030526 75 350 2.6 2.6 0.00 0.00 0.00 42 1014.0
20260906030026 75 103 1.7 1.7 0.00 0.00 0.00 39 1013.6
20260906025526 75 30 0.9 0.9 0.00 0.00 0.00 41 1013.6
20260906025024 74 297 0.0 2.6 0.00 0.00 0.00 40 1013.3
20260906024520 77 311 0.0 1.7 0.00 0.00 0.00 39 1013.3
20260906024020 76 135 1.7 2.6 0.00 0.00 0.00 39 1013.4
20260906023516 77 172 4.3 5.2 0.00 0.00 0.00 38 1013.4
20260906023011 78 172 2.6 2.6 0.00 0.00 0.00 36 1013.1
20260906022506 78 150 2.6 2.6 0.00 0.00 0.00 37 1013.3
20260906022001 77 314 0.0 0.9 0.00 0.00 0.00 36 1013.4
20260906021456 78 334 0.0 1.7 0.00 0.00 0.00 36 1013.4
20260906020950 78 333 0.9 0.9 0.00 0.00 0.00 35 1012.9
20260906020445 78 336 0.9 4.3 0.00 0.00 0.00 35 1012.8
20260906015944 79 303 0.9 1.7 0.00 0.00 0.00 34 1012.9
20260906015444 79 321 0.9 0.9 0.00 0.00 0.00 35 1012.5
20260906014944 79 318 1.7 1.7 0.00 0.00 0.00 36 1012.9
20260906014438 79 331 0.0 0.9 0.00 0.00 0.00 37 1012.5
20260906013934 78 325 0.9 0.9 0.00 0.00 0.00 38 1012.4
20260906013429 81 302 0.9 1.7 0.00 0.00 0.00 39 1012.2
20260906012925 81 170 1.7 1.7 0.00 0.00 0.00 34 1012.2
20260906012425 82 147 2.6 2.6 0.00 0.00 0.00 33 1012.2
20260906011924 83 170 3.5 4.3 0.00 0.00 0.00 33 1012.3
20260906011420 84 169 3.5 4.3 0.00 0.00 0.00 32 1012.7
20260906010915 85 154 3.5 4.3 0.00 0.00 0.00 30 1012.1
20260906010411 86 178 1.7 2.6 0.00 0.00 0.00 29 1012.4
20260906005907 86 174 1.7 2.6 0.00 0.00 0.00 30 1012.4
20260906005406 87 160 2.6 2.6 0.00 0.00 0.00 29 1012.2
20260906004904 87 186 2.6 2.6 0.00 0.00 0.00 28 1012.5
20260906004359 88 157 2.6 4.3 0.00 0.00 0.00 27 1012.4
20260906003854 88 163 3.5 6.1 0.00 0.00 0.00 26 1012.4
20260906003350 89 321 1.7 4.3 0.00 0.00 0.00 27 1012.4
20260906002845 89 155 2.6 5.2 0.00 0.00 0.00 26 1012.4
20260906002344 89 164 5.2 6.1 0.00 0.00 0.00 26 1012.4
20260906001840 89 315 2.6 7.0 0.00 0.00 0.00 26 1012.3
20260906001336 90 115 1.7 6.1 0.00 0.00 0.00 25 1012.5
20260906000831 90 65 1.7 2.6 0.00 0.00 0.00 23 1012.1
20260906000326 90 20 1.7 5.2 0.00 0.00 0.00 24 1012.2
20260905235825 90 32 4.3 6.1 0.00 0.00 0.00 24 1012.2
20260905235320 90 62 2.6 7.0 0.00 0.00 0.00 23 1012.2
20260905234815 90 65 0.9 7.8 0.00 0.00 0.00 24 1012.2
20260905234310 90 51 2.6 7.0 0.00 0.00 0.00 24 1012.1
20260905233805 91 59 3.5 6.1 0.00 0.00 0.00 24 1012.1
20260905233300 91 58 1.7 6.1 0.00 0.00 0.00 23 1012.1
20260905232759 91 79 5.2 7.0 0.00 0.00 0.00 23 1012.1
20260905232255 91 58 7.8 9.6 0.00 0.00 0.00 23 1012.1
20260905231751 91 358 5.2 7.0 0.00 0.00 0.00 24 1012.4
20260905231246 90 8 5.2 6.1 0.00 0.00 0.00 23 1012.2
20260905230742 90 318 7.0 9.6 0.00 0.00 0.00 25 1011.7
20260905230240 90 4 2.6 5.2 0.00 0.00 0.00 24 1012.3
20260905225739 90 339 3.5 7.0 0.00 0.00 0.00 24 1012.0
20260905225235 90 294 1.7 5.2 0.00 0.00 0.00 23 1012.2
20260905224734 91 315 0.9 1.7 0.00 0.00 0.00 23 1012.0
20260905224230 90 355 6.1 8.7 0.00 0.00 0.00 23 1012.0
20260905223726 90 318 5.2 9.6 0.00 0.00 0.00 24 1012.2